TimeCDT,TemperatureF,Dew PointF,Humidity,Sea Level PressureIn,VisibilityMPH,Wind Direction,Wind SpeedMPH,Gust SpeedMPH,PrecipitationIn,Events,Conditions,WindDirDegrees,DateUTC
12:53 AM,59.0,52.0,78,30.10,10.0,NE,11.5,-,N/A,,Scattered Clouds,40,2012-09-27 05:53:00
1:00 AM,59.0,51.8,77,30.11,10.0,NE,12.7,-,N/A,,Mostly Cloudy,40,2012-09-27 06:00:00
1:53 AM,57.9,51.1,78,30.11,10.0,NE,10.4,-,N/A,,Scattered Clouds,40,2012-09-27 06:53:00
2:46 AM,59.0,50.0,72,30.12,10.0,NE,11.5,-,N/A,,Mostly Cloudy,40,2012-09-27 07:46:00
2:53 AM,59.0,48.9,69,30.12,10.0,NE,13.8,-,N/A,,Mostly Cloudy,40,2012-09-27 07:53:00
3:26 AM,57.2,48.2,72,30.12,10.0,NE,12.7,18.4,N/A,,Scattered Clouds,40,2012-09-27 08:26:00
3:44 AM,57.2,48.2,72,30.12,10.0,NE,9.2,-,N/A,,Mostly Cloudy,40,2012-09-27 08:44:00
3:53 AM,57.0,48.9,74,30.12,10.0,NE,12.7,-,N/A,,Mostly Cloudy,50,2012-09-27 08:53:00
4:53 AM,57.0,48.9,74,30.14,10.0,NE,11.5,-,N/A,,Overcast,40,2012-09-27 09:53:00
5:53 AM,57.0,48.9,74,30.15,10.0,NE,10.4,-,N/A,,Overcast,50,2012-09-27 10:53:00
6:53 AM,57.0,48.9,74,30.17,10.0,NNE,5.8,-,N/A,,Overcast,30,2012-09-27 11:53:00
7:53 AM,57.9,48.9,72,30.17,10.0,NNE,8.1,-,N/A,,Overcast,30,2012-09-27 12:53:00
8:53 AM,60.1,48.9,67,30.18,10.0,NNE,4.6,-,N/A,,Overcast,30,2012-09-27 13:53:00
9:53 AM,62.1,48.0,60,30.19,10.0,NE,5.8,-,N/A,,Overcast,40,2012-09-27 14:53:00
10:53 AM,64.9,48.9,56,30.18,10.0,NNE,5.8,-,N/A,,Overcast,30,2012-09-27 15:53:00
11:53 AM,70.0,51.1,51,30.17,10.0,Variable,5.8,-,N/A,,Clear,0,2012-09-27 16:53:00
12:53 PM,72.0,53.1,51,30.16,10.0,North,4.6,-,N/A,,Clear,350,2012-09-27 17:53:00
1:53 PM,73.9,52.0,46,30.14,10.0,North,5.8,-,N/A,,Clear,360,2012-09-27 18:53:00
2:53 PM,75.0,52.0,44,30.12,10.0,NNW,6.9,-,N/A,,Clear,330,2012-09-27 19:53:00
3:53 PM,73.9,50.0,43,30.11,10.0,Calm,Calm,-,N/A,,Clear,0,2012-09-27 20:53:00
4:53 PM,73.9,50.0,43,30.11,10.0,NNW,4.6,-,N/A,,Clear,330,2012-09-27 21:53:00
5:53 PM,71.1,50.0,47,30.12,10.0,NNW,5.8,-,N/A,,Clear,340,2012-09-27 22:53:00
6:53 PM,62.1,48.9,62,30.12,10.0,North,6.9,-,N/A,,Clear,360,2012-09-27 23:53:00
7:53 PM,60.1,45.0,57,30.13,10.0,North,8.1,-,N/A,,Clear,350,2012-09-28 00:53:00
8:53 PM,60.1,43.0,53,30.14,10.0,North,9.2,-,N/A,,Clear,10,2012-09-28 01:53:00
9:53 PM,57.0,44.1,62,30.14,10.0,North,6.9,-,N/A,,Clear,10,2012-09-28 02:53:00
10:53 PM,57.0,46.9,69,30.15,10.0,NNE,12.7,-,N/A,,Clear,30,2012-09-28 03:53:00
11:53 PM,55.9,46.9,72,30.15,10.0,NNE,10.4,-,N/A,,Clear,30,2012-09-28 04:53:00